TimeMDT,TemperatureF,Dew PointF,Humidity,Sea Level PressureIn,VisibilityMPH,Wind Direction,Wind SpeedMPH,Gust SpeedMPH,PrecipitationIn,Events,Conditions,WindDirDegrees,DateUTC
12:35 AM,55.4,26.6,33,29.79,10.0,South,16.1,-,N/A,,Mostly Cloudy,180,2012-10-02 06:35:00
12:55 AM,55.4,26.6,33,29.78,10.0,South,13.8,20.7,N/A,,Scattered Clouds,180,2012-10-02 06:55:00
1:15 AM,53.6,26.6,35,29.77,10.0,South,10.4,-,N/A,,Scattered Clouds,180,2012-10-02 07:15:00
1:35 AM,53.6,26.6,35,29.77,10.0,South,10.4,16.1,N/A,,Partly Cloudy,190,2012-10-02 07:35:00
1:55 AM,53.6,26.6,35,29.76,10.0,South,11.5,-,N/A,,Partly Cloudy,190,2012-10-02 07:55:00
2:15 AM,53.6,26.6,35,29.75,10.0,South,11.5,-,N/A,,Partly Cloudy,190,2012-10-02 08:15:00
2:35 AM,51.8,28.4,41,29.75,10.0,South,8.1,-,N/A,,Clear,170,2012-10-02 08:35:00
2:55 AM,48.2,28.4,46,29.74,10.0,South,8.1,-,N/A,,Partly Cloudy,180,2012-10-02 08:55:00
3:15 AM,55.4,28.4,36,29.73,10.0,SSW,15.0,21.9,N/A,,Partly Cloudy,210,2012-10-02 09:15:00
3:35 AM,57.2,28.4,33,29.72,10.0,SW,17.3,25.3,N/A,,Partly Cloudy,220,2012-10-02 09:35:00
3:55 AM,57.2,28.4,33,29.71,10.0,SW,15.0,21.9,N/A,,Partly Cloudy,220,2012-10-02 09:55:00
4:15 AM,57.2,30.2,36,29.71,10.0,SW,15.0,-,N/A,,Mostly Cloudy,230,2012-10-02 10:15:00
4:35 AM,57.2,30.2,36,29.71,10.0,SW,16.1,21.9,N/A,,Partly Cloudy,230,2012-10-02 10:35:00
5:15 AM,55.4,32.0,41,29.71,10.0,SW,10.4,-,N/A,,Scattered Clouds,230,2012-10-02 11:15:00
5:35 AM,55.4,32.0,41,29.71,10.0,SW,10.4,-,N/A,,Partly Cloudy,230,2012-10-02 11:35:00
5:55 AM,55.4,32.0,41,29.71,10.0,SW,11.5,-,N/A,,Partly Cloudy,230,2012-10-02 11:55:00
6:15 AM,53.6,32.0,44,29.71,10.0,SW,10.4,-,N/A,,Partly Cloudy,230,2012-10-02 12:15:00
6:35 AM,55.4,32.0,41,29.71,10.0,WSW,12.7,-,N/A,,Clear,240,2012-10-02 12:35:00
6:55 AM,55.4,32.0,41,29.71,10.0,WSW,13.8,-,N/A,,Clear,240,2012-10-02 12:55:00
7:15 AM,55.4,32.0,41,29.72,10.0,WSW,13.8,18.4,N/A,,Clear,250,2012-10-02 13:15:00
7:35 AM,55.4,32.0,41,29.72,10.0,WSW,10.4,-,N/A,,Partly Cloudy,250,2012-10-02 13:35:00
7:55 AM,55.4,32.0,41,29.73,10.0,West,12.7,-,N/A,,Partly Cloudy,260,2012-10-02 13:55:00
8:15 AM,57.2,32.0,38,29.74,10.0,West,8.1,-,N/A,,Partly Cloudy,260,2012-10-02 14:15:00
8:35 AM,57.2,32.0,38,29.74,10.0,West,11.5,-,N/A,,Clear,260,2012-10-02 14:35:00
8:55 AM,59.0,32.0,36,29.75,10.0,WNW,4.6,-,N/A,,Clear,290,2012-10-02 14:55:00
9:15 AM,62.6,32.0,32,29.75,10.0,West,3.5,-,N/A,,Clear,270,2012-10-02 15:15:00
9:35 AM,62.6,32.0,32,29.76,10.0,West,6.9,-,N/A,,Clear,280,2012-10-02 15:35:00
9:55 AM,64.4,32.0,30,29.76,10.0,West,10.4,-,N/A,,Clear,260,2012-10-02 15:55:00
10:15 AM,66.2,32.0,28,29.76,10.0,West,10.4,-,N/A,,Clear,260,2012-10-02 16:15:00
10:35 AM,68.0,33.8,28,29.77,10.0,WNW,11.5,-,N/A,,Clear,290,2012-10-02 16:35:00
10:55 AM,68.0,33.8,28,29.77,10.0,NW,11.5,-,N/A,,Clear,310,2012-10-02 16:55:00
11:15 AM,69.8,35.6,28,29.77,10.0,WNW,11.5,18.4,N/A,,Clear,300,2012-10-02 17:15:00
11:35 AM,69.8,35.6,28,29.77,10.0,NW,12.7,16.1,N/A,,Clear,320,2012-10-02 17:35:00
11:55 AM,69.8,35.6,28,29.77,10.0,NW,15.0,23.0,N/A,,Clear,320,2012-10-02 17:55:00
12:15 PM,69.8,35.6,28,29.78,10.0,NW,15.0,23.0,N/A,,Clear,320,2012-10-02 18:15:00
12:35 PM,69.8,35.6,28,29.79,10.0,NW,13.8,20.7,N/A,,Clear,320,2012-10-02 18:35:00
12:55 PM,69.8,35.6,28,29.78,10.0,NW,12.7,19.6,N/A,,Clear,320,2012-10-02 18:55:00
1:15 PM,71.6,37.4,29,29.78,10.0,NW,17.3,20.7,N/A,,Clear,320,2012-10-02 19:15:00
1:35 PM,71.6,37.4,29,29.78,10.0,NW,13.8,19.6,N/A,,Clear,310,2012-10-02 19:35:00
1:55 PM,71.6,37.4,29,29.79,10.0,WNW,13.8,21.9,N/A,,Clear,300,2012-10-02 19:55:00
2:15 PM,69.8,37.4,31,29.79,10.0,NW,16.1,19.6,N/A,,Clear,310,2012-10-02 20:15:00
2:35 PM,68.0,35.6,30,29.79,10.0,NW,15.0,19.6,N/A,,Clear,320,2012-10-02 20:35:00
2:55 PM,68.0,37.4,33,29.79,10.0,NW,13.8,18.4,N/A,,Clear,310,2012-10-02 20:55:00
3:15 PM,68.0,35.6,30,29.79,10.0,NW,13.8,19.6,N/A,,Clear,320,2012-10-02 21:15:00
3:35 PM,68.0,35.6,30,29.80,10.0,NW,16.1,19.6,N/A,,Partly Cloudy,320,2012-10-02 21:35:00
3:55 PM,68.0,35.6,30,29.80,10.0,NW,15.0,19.6,N/A,,Clear,310,2012-10-02 21:55:00
4:15 PM,68.0,35.6,30,29.81,10.0,WNW,10.4,-,N/A,,Clear,300,2012-10-02 22:15:00
4:35 PM,68.0,35.6,30,29.81,10.0,NW,8.1,-,N/A,,Clear,310,2012-10-02 22:35:00
4:55 PM,68.0,35.6,30,29.82,10.0,NW,6.9,-,N/A,,Clear,310,2012-10-02 22:55:00
5:15 PM,68.0,35.6,30,29.81,10.0,NW,10.4,-,N/A,,Partly Cloudy,320,2012-10-02 23:15:00
5:35 PM,66.2,33.8,30,29.81,10.0,North,8.1,-,N/A,,Clear,350,2012-10-02 23:35:00
6:15 PM,62.6,33.8,34,29.81,10.0,NNW,4.6,-,N/A,,Clear,330,2012-10-03 00:15:00
6:35 PM,57.2,32.0,38,29.81,10.0,NNE,9.2,-,N/A,,Clear,20,2012-10-03 00:35:00
6:55 PM,55.4,32.0,41,29.82,10.0,NE,4.6,-,N/A,,Clear,40,2012-10-03 00:55:00
7:15 PM,51.8,32.0,47,29.82,10.0,Calm,Calm,-,N/A,,Mostly Cloudy,0,2012-10-03 01:15:00
7:35 PM,53.6,32.0,44,29.82,10.0,North,3.5,-,N/A,,Mostly Cloudy,360,2012-10-03 01:35:00
8:15 PM,50.0,32.0,50,29.84,10.0,NW,4.6,-,N/A,,Scattered Clouds,310,2012-10-03 02:15:00
8:35 PM,48.2,32.0,54,29.84,10.0,NW,5.8,-,N/A,,Partly Cloudy,320,2012-10-03 02:35:00
8:55 PM,46.4,32.0,57,29.84,10.0,NE,3.5,-,N/A,,Clear,50,2012-10-03 02:55:00
9:15 PM,44.6,32.0,61,29.84,10.0,SSE,3.5,-,N/A,,Clear,150,2012-10-03 03:15:00
9:35 PM,44.6,32.0,61,29.84,10.0,Calm,Calm,-,N/A,,Clear,0,2012-10-03 03:35:00
9:55 PM,41.0,32.0,70,29.85,10.0,Calm,Calm,-,N/A,,Clear,0,2012-10-03 03:55:00
10:15 PM,41.0,30.2,65,29.85,10.0,Calm,Calm,-,N/A,,Clear,0,2012-10-03 04:15:00
10:35 PM,44.6,32.0,61,29.85,10.0,NNE,5.8,-,N/A,,Clear,30,2012-10-03 04:35:00
10:55 PM,44.6,32.0,61,29.88,10.0,North,9.2,-,N/A,,Mostly Cloudy,350,2012-10-03 04:55:00
11:15 PM,46.4,32.0,57,29.88,10.0,North,11.5,-,N/A,,Mostly Cloudy,10,2012-10-03 05:15:00
11:35 PM,48.2,33.8,58,29.88,10.0,NNE,9.2,-,N/A,,Mostly Cloudy,20,2012-10-03 05:35:00
11:55 PM,48.2,35.6,62,29.90,10.0,North,13.8,-,N/A,,Scattered Clouds,360,2012-10-03 05:55:00